STARLINK-4655, 53613

Orbit data source: Space-Track

STARLINK-4655, 53613 is a payload satellite owned by SpaceX/Seattle (US) in LEO that was launched on Sun, 28 Aug 2022 UTC via an FALCON 9 launch vehicle from the Air Force Eastern Test Range (AFETR). Payload-class satellites include a variety of spacecraft equipped with specific instruments for various scientific and technological missions. These include communications satellites like Starlink; space stations such as the ISS; scientific satellites like the Hubble; Earth observation satellites from companies like Planet Labs, Umbra, and HawkEye 360; GPS; miniature CubeSats for education and research; and military/defense satellites.

Loading next visibility...
Identifier
53613, 2022-104AB
Orbit
LEO
Last TLE update
18 hours ago
Origin
Manufacturer
SpaceX/Seattle
Mission
Operational Commercial Communications
Bus & Motor
STARLINK, Unknown motor
Mass
300 kg wet, ~290 kg dry
Launch date (UTC)
2022-08-28 (3 years ago)
Launch vehicle
FALCON 9
Launch site
Air Force Eastern Test Range (AFETR)
Object type
Payload
Rocket body
Debris
Shape & HBR
Box + 1 Pan, 8.86 m
Radar Cross Section
13.562 m², Large (>1 m²)

Expand to show TLE details & history

TLE from 18 hours ago
0 STARLINK-4655
1 53613U 22104AB  25181.65145544  .00002081  00000-0  14879-3 0  9991
2 53613  53.2180 285.7170 0001006  91.2344 268.8764 15.08845226157587
Epoch: 2025-06-30T15:38Z
TLE epoch observation values (Epoch: 2025-06-30T15:38:05.75Z)
Latitude
0.00005°
Longitude
132.23488°
Altitude
540.639 km
Speed
7.593 km/s
True Right ascension
19h 02m 52s
True Declination
0° 00' 00"
Sunlit
Object was in full shadow at epoch
Visualization orbit readout
Latitude
21.07567°
Longitude
-67.814°
Altitude
539.93 km
Speed
7.596 km/s
Apparent Right ascension
07h 17m 48s
Apparent Declination
-9° 01' 28"
Sunlit
Object is in daylight
Visualization observer readout
Local Sidereal Time
21:26:17
Azimuth
51.583° ENE
Elevation
-47.92°
Doppler factor
1
Orbital elements
Apogee altitude
540.668 km
Perigee altitude
539.276 km
Semi-major axis
6,918.109 km
Eccentricity
0.0001
Inclination
53.218°
RAAN
285.717°
Arg. of periapsis
91.2344°
True anomaly
Unknown
Mean anomaly
268.8764°
Eccentric anomaly
Unknown
Mean motion
3.77192 °/min
Orbital period
95.44 mins
BSTAR
0.00014879
Loading maneuver chart data...
Loading SW <> Apogee altitude chart data...
Loading historical data...
Loading historical data...
Loading historical data...
Loading historical data...
Loading historical data...
Loading historical data...
Loading historical data...

STARLINK-4655 Visibility forecast

Observer location: undefined°, undefined°

Span
Click to sort rows by Start time (UTC) header in descending order
Start Az.
Max El. time (UTC)
Max El. Az.
Max El.
End time (UTC)
End Az.
6 mins2025-07-01 10:56:56.385Z277.282° WNW2025-07-01 10:59:56.385Z331.789° NNW24.377°2025-07-01 11:02:56.385Z27.808° NE
6 mins2025-07-01 15:58:56.385Z326.85° NNW2025-07-01 16:00:56.385Z16.535° NNE37.76°2025-07-01 16:04:56.385Z112.274° ESE
4 mins2025-07-01 17:38:56.385Z259.651° W2025-07-01 17:39:56.385Z240.004° WSW19.702°2025-07-01 17:42:56.385Z186.412° SSW
6 mins2025-07-02 09:08:56.385Z218.419° SW2025-07-02 09:11:56.385Z107.239° ESE42.942°2025-07-02 09:14:56.385Z55.062° ENE
|